[[{"header":{"parameterUnit":"m.s-1","parameterCategory":1,"la1":30.2991,"la2":30.254,"lo1":-89.0895,"lo2":-89.0444,"dy":0.0017,"dx":0.0017,"nx":28,"ny":28,"refTime":"2025-08-26T03:00:00:Z","depth":0,"parameterNumber":2,"parameterNumberName":"U-component_of_WINDS"},"data":[0,0,0,0,0,0,0,0,0,0,0,0,0,0,0,0,0,0,0,0,0,0,0,0,0,0,0,0,0,0,0,0,0,0,0,0,0,0,0,0,0,0,0,0,0,0,0,0,0,0,0,0,0,0,0,0,0,0,0.2416,0.2417,0,0.2506,0.2507,0.2508,0.2568,0.2568,0.2569,0.2569,0.2661,0.2664,0.2666,0,0,0,0,0,0,0,0,0,0,0,0,0,0.2296,0.2298,0.2416,0.2417,0.2418,0.2506,0.2507,0.2509,0.2568,0.2568,0.2569,0.2569,0.2661,0.2663,0.2666,0,0,0,0,0,0,0,0,0,0,0,0,0,0.2363,0.2298,0.2416,0.2459,0.2463,0.2506,0.2507,0.2509,0.2568,0.2568,0.2569,0.257,0.266,0.2663,0.2666,0.2673,0,0,0.2676,0.2677,0,0,0,0,0,0,0,0,0.2359,0.2367,0.2451,0.2456,0.2461,0.2527,0.2499,0.2564,0.2568,0.2528,0.2569,0.257,0.2616,0.2623,0.2638,0.2678,0.2682,0.2676,0.2678,0.2679,0.268,0,0,0,0,0,0,0,0.2354,0.2364,0.2452,0.2452,0.2458,0.2473,0.2483,0.2511,0.2568,0.2532,0.2536,0.2546,0.2619,0.2635,0.2641,0.2683,0.2676,0.2679,0.2681,0.2682,0.2732,0.2731,0,0,0,0,0,0,0.2343,0.236,0.2449,0.2455,0.2411,0.2475,0.2486,0.2505,0.2568,0.2578,0.2545,0.2548,0.263,0.2637,0.2644,0.2656,0.2679,0.2682,0.2684,0.2732,0.2732,0.2731,0,0,0,0,0,0,0.234,0.235,0.2445,0.2408,0.2422,0.2476,0.2497,0.2506,0.2523,0.2578,0.2588,0.2552,0.263,0.264,0.2666,0.266,0.2684,0.2686,0.2733,0.2732,0.2731,0.268,0,0,0,0,0,0,0.2337,0.2349,0.2352,0.2408,0.2423,0.2465,0.2496,0.2508,0.2528,0.2533,0.2587,0.2596,0.2632,0.2661,0.2669,0.2665,0.2689,0.2734,0.2733,0.2732,0.2683,0.2678,0.2674,0,0,0,0,0,0.2332,0.2335,0.2352,0.2363,0.2429,0.2464,0.2473,0.2514,0.2527,0.2531,0.2566,0.2594,0.266,0.2663,0.2672,0.267,0.2734,0.2733,0.2732,0.2685,0.2679,0.2674,0,0,0,0,0,0,0.2277,0.2343,0.2363,0.2384,0.2418,0.2474,0.248,0.2506,0.2538,0.2541,0.259,0.2602,0.2622,0.2649,0.2651,0.2679,0.27,0.2701,0.2661,0.2656,0.2652,0.2644,0.2691,0,0,0,0,0,0.2267,0.2291,0.2347,0.236,0.2376,0.2425,0.2442,0.247,0.2508,0.2523,0.256,0.2595,0.2624,0.2642,0.2671,0.2687,0.2699,0.269,0.2685,0.2681,0.2681,0.2691,0.2687,0.2727,0.2727,0.2727,0,0,0.2248,0.2286,0.2298,0.235,0.238,0.2403,0.2437,0.246,0.2477,0.2526,0.2552,0.2581,0.2624,0.2644,0.2655,0.2667,0.2673,0.268,0.2676,0.2678,0.2689,0.2685,0.2682,0.2726,0.2726,0.2727,0,0,0.2223,0.2255,0.2269,0.2298,0.2343,0.2375,0.2378,0.2431,0.2451,0.2478,0.2515,0.2537,0.2585,0.2614,0.2635,0.262,0.2647,0.2629,0.2605,0.2613,0.261,0.2608,0.2601,0.2599,0.2628,0.2628,0.2628,0,0.2193,0.2229,0.2272,0.2293,0.2314,0.236,0.2374,0.24,0.2452,0.2465,0.2478,0.2539,0.2571,0.2599,0.2595,0.2611,0.2615,0.2622,0.2607,0.2605,0.2603,0.2598,0.2596,0.2626,0.2626,0.2626,0.2626,0,0.2189,0.2213,0.2219,0.2267,0.2289,0.2306,0.2353,0.237,0.2396,0.2427,0.2454,0.2494,0.2532,0.254,0.2567,0.2571,0.2577,0.2598,0.262,0.2596,0.2592,0.259,0.2622,0.2623,0.2624,0.2624,0,0,0.2131,0.2204,0.2205,0.2227,0.228,0.2299,0.2319,0.2355,0.2368,0.2403,0.242,0.2459,0.2479,0.2502,0.2532,0.254,0.2525,0.256,0.2562,0.2551,0.2531,0.2514,0.2511,0.2543,0.2543,0.2543,0.2527,0,0.2114,0.215,0.219,0.2212,0.2235,0.2278,0.2295,0.2329,0.2358,0.2382,0.2415,0.2441,0.2466,0.248,0.249,0.2524,0.2521,0.2527,0.2559,0.2559,0.2545,0.2509,0.2492,0.2475,0.2526,0.2526,0.2525,0,0.2098,0.2129,0.2154,0.2204,0.2215,0.2229,0.2265,0.2287,0.2327,0.2348,0.2373,0.2405,0.2428,0.2447,0.2478,0.248,0.2496,0.2515,0.2516,0.2519,0.254,0.2511,0.247,0.2467,0.2524,0.2524,0.2524,0,0.2052,0.2101,0.2121,0.2139,0.2198,0.2207,0.2232,0.2272,0.2291,0.2323,0.2336,0.2371,0.2389,0.2415,0.2455,0.2466,0.2481,0.2505,0.2499,0.2497,0.2499,0.2498,0.2459,0.2511,0.2511,0.2511,0.2511,0,0.2027,0.204,0.2101,0.2114,0.213,0.2175,0.219,0.2219,0.2254,0.2272,0.2313,0.233,0.2382,0.2405,0.2437,0.2457,0.2465,0.2483,0.2491,0.2478,0.2476,0.2488,0.249,0.251,0.2511,0.2511,0.2511,0,0.1978,0.202,0.2045,0.2099,0.2113,0.2121,0.2167,0.2181,0.2213,0.2236,0.2244,0.2294,0.2324,0.2367,0.2409,0.243,0.2445,0.2459,0.2431,0.2436,0.2427,0.2426,0.2394,0.2391,0.2445,0.2445,0.2444,0,0.1959,0.1969,0.2024,0.204,0.2063,0.2087,0.2107,0.2153,0.2172,0.2217,0.2225,0.2257,0.2285,0.233,0.237,0.2402,0.2417,0.2403,0.2422,0.2408,0.2415,0.2413,0.2414,0.2398,0.2397,0.2396,0.2396,0,0.192,0.194,0.1967,0.2,0.2023,0.2052,0.2083,0.2093,0.2146,0.2165,0.2195,0.2216,0.2259,0.229,0.2328,0.2354,0.2383,0.239,0.239,0.2377,0.2359,0.2367,0.2417,0.239,0.2391,0.2391,0.2391,0.2392,0.1884,0.1895,0.1935,0.1964,0.1992,0.202,0.2035,0.2069,0.2094,0.2132,0.2158,0.2186,0.2225,0.2279,0.2303,0.2326,0.2339,0.2339,0.2339,0.2338,0.2333,0.2357,0.2334,0.2334,0.2334,0.2334,0.2334,0,0.1846,0.1874,0.19,0.1941,0.1963,0.1989,0.2025,0.2042,0.2066,0.21,0.2126,0.216,0.2191,0.2233,0.2267,0.2277,0.2291,0.2284,0.2283,0.2288,0.2321,0.2317,0.2272,0.2272,0.2272,0.2272,0.2272,0.2272,0.1828,0.1848,0.1873,0.1907,0.1936,0.1963,0.1981,0.2007,0.2034,0.207,0.2095,0.2123,0.216,0.2197,0.2226,0.2237,0.2247,0.2236,0.2251,0.228,0.2286,0.2291,0.2288,0.2238,0.2238,0.2217,0.2217,0.2216]},{"header":{"parameterUnit":"m.s-1","parameterCategory":1,"la1":30.2991,"la2":30.254,"lo1":-89.0895,"lo2":-89.0444,"dy":0.0017,"dx":0.0017,"nx":28,"ny":28,"refTime":"2025-08-26T03:00:00:Z","depth":0,"parameterNumber":3,"parameterNumberName":"V-component_of_WINDS"},"data":[0,0,0,0,0,0,0,0,0,0,0,0,0,0,0,0,0,0,0,0,0,0,0,0,0,0,0,0,0,0,0,0,0,0,0,0,0,0,0,0,0,0,0,0,0,0,0,0,0,0,0,0,0,0,0,0,0,0,0.6822,0.6821,0,0.6734,0.6733,0.6732,0.6673,0.6673,0.6672,0.6672,0.6581,0.6579,0.6577,0,0,0,0,0,0,0,0,0,0,0,0,0,0.6937,0.6936,0.6822,0.6821,0.682,0.6734,0.6733,0.6732,0.6673,0.6672,0.6672,0.6672,0.6581,0.6579,0.6576,0,0,0,0,0,0,0,0,0,0,0,0,0,0.6872,0.6935,0.6822,0.678,0.6775,0.6735,0.6733,0.6732,0.6673,0.6672,0.6672,0.6671,0.6582,0.6579,0.6576,0.657,0,0,0.6567,0.6565,0,0,0,0,0,0,0,0,0.6876,0.6868,0.6787,0.6783,0.6777,0.6714,0.674,0.6677,0.6673,0.6712,0.6672,0.6671,0.6625,0.6619,0.6604,0.6565,0.6561,0.6566,0.6565,0.6563,0.6562,0,0,0,0,0,0,0,0.6881,0.6872,0.6787,0.6786,0.678,0.6765,0.6755,0.6728,0.6673,0.6708,0.6704,0.6694,0.6623,0.6607,0.6601,0.656,0.6567,0.6564,0.6562,0.6561,0.6512,0.6513,0,0,0,0,0,0,0.6892,0.6876,0.679,0.6784,0.6826,0.6764,0.6753,0.6735,0.6673,0.6663,0.6695,0.6692,0.6612,0.6605,0.6598,0.6585,0.6563,0.656,0.6559,0.6512,0.6513,0.6513,0,0,0,0,0,0,0.6895,0.6885,0.6793,0.6829,0.6816,0.6762,0.6743,0.6733,0.6717,0.6663,0.6653,0.6689,0.6611,0.6602,0.6577,0.6581,0.6559,0.6556,0.6511,0.6512,0.6513,0.6562,0,0,0,0,0,0,0.6898,0.6886,0.6883,0.6829,0.6814,0.6775,0.6743,0.6732,0.6713,0.6708,0.6655,0.6645,0.661,0.6582,0.6574,0.6577,0.6554,0.6511,0.6512,0.6513,0.656,0.6564,0.6568,0,0,0,0,0,0.6903,0.69,0.6883,0.6873,0.681,0.6775,0.6766,0.6726,0.6713,0.6709,0.6675,0.6647,0.6583,0.658,0.6571,0.6573,0.651,0.6511,0.6512,0.6558,0.6563,0.6568,0,0,0,0,0,0,0.6955,0.6892,0.6873,0.6853,0.682,0.6765,0.6759,0.6734,0.6703,0.67,0.6651,0.664,0.662,0.6594,0.6592,0.6563,0.6543,0.6543,0.6581,0.6586,0.659,0.6596,0.6551,0,0,0,0,0,0.6965,0.6942,0.6888,0.6876,0.686,0.6813,0.6796,0.6769,0.6732,0.6718,0.6681,0.6647,0.6618,0.6601,0.6572,0.6556,0.6544,0.6553,0.6558,0.6561,0.6561,0.655,0.6554,0.6517,0.6517,0.6517,0,0,0.6983,0.6946,0.6935,0.6886,0.6856,0.6834,0.6801,0.6779,0.6761,0.6714,0.6688,0.6661,0.6619,0.6599,0.6588,0.6576,0.6569,0.6563,0.6566,0.6564,0.6552,0.6556,0.6559,0.6518,0.6518,0.6518,0,0,0.7006,0.6976,0.6962,0.6934,0.6891,0.686,0.6857,0.6806,0.6786,0.676,0.6724,0.6703,0.6656,0.6627,0.6607,0.6621,0.6594,0.6613,0.6635,0.6626,0.6628,0.6631,0.6635,0.6637,0.6613,0.6613,0.6613,0,0.7034,0.6999,0.6958,0.6938,0.6917,0.6875,0.686,0.6835,0.6785,0.6771,0.676,0.67,0.6669,0.6641,0.6645,0.663,0.6625,0.6618,0.6631,0.6633,0.6635,0.6638,0.664,0.6616,0.6615,0.6615,0.6615,0,0.7036,0.7012,0.7007,0.696,0.6939,0.6922,0.6878,0.6862,0.6836,0.6807,0.6781,0.6742,0.6705,0.6697,0.6672,0.6666,0.666,0.6641,0.6619,0.6641,0.6644,0.6645,0.6619,0.6618,0.6618,0.6617,0,0,0.7087,0.7019,0.7017,0.6996,0.6946,0.6927,0.6909,0.6873,0.6859,0.6827,0.6809,0.6772,0.6754,0.673,0.6702,0.6694,0.6707,0.6675,0.6673,0.6682,0.6698,0.6712,0.6714,0.669,0.669,0.669,0.6701,0,0.7101,0.7065,0.7028,0.7005,0.6983,0.6943,0.6927,0.6895,0.6867,0.6844,0.6813,0.6786,0.6765,0.6751,0.6741,0.6707,0.6709,0.6706,0.6672,0.6671,0.6682,0.6715,0.673,0.6742,0.6702,0.6702,0.6702,0,0.7111,0.7082,0.7057,0.701,0.6999,0.6985,0.695,0.6928,0.6891,0.6872,0.6847,0.6817,0.6795,0.6778,0.6747,0.6746,0.6731,0.6712,0.6712,0.6706,0.6687,0.6709,0.6745,0.6746,0.6703,0.6703,0.6703,0,0.715,0.7104,0.7083,0.7066,0.7011,0.7002,0.6978,0.6941,0.6922,0.6892,0.6879,0.6846,0.6828,0.6803,0.6765,0.6756,0.6739,0.6718,0.6721,0.6722,0.6717,0.6718,0.675,0.671,0.671,0.671,0.671,0,0.7168,0.7154,0.7099,0.7086,0.7069,0.7028,0.7013,0.6986,0.6953,0.6934,0.6898,0.6881,0.6833,0.681,0.6781,0.6759,0.6752,0.6735,0.6727,0.6737,0.6739,0.6725,0.6723,0.671,0.671,0.671,0.671,0,0.7208,0.717,0.7144,0.7095,0.7083,0.7073,0.703,0.7016,0.6987,0.6964,0.6956,0.691,0.6881,0.6842,0.6801,0.6781,0.6764,0.6752,0.6776,0.6771,0.6776,0.6776,0.6799,0.68,0.6761,0.6761,0.6762,0,0.7221,0.7209,0.716,0.7145,0.7123,0.7099,0.708,0.7039,0.7021,0.6979,0.697,0.6939,0.6911,0.6868,0.6831,0.6799,0.6786,0.6796,0.678,0.6792,0.6785,0.6785,0.6784,0.6799,0.68,0.68,0.6801,0,0.7249,0.7231,0.7205,0.7173,0.7152,0.7125,0.7096,0.7085,0.7039,0.702,0.6991,0.697,0.6929,0.6898,0.6862,0.6838,0.6812,0.6807,0.6805,0.6815,0.6829,0.6821,0.6785,0.6806,0.6805,0.6805,0.6804,0.6804,0.7274,0.7262,0.7226,0.7198,0.7173,0.7147,0.7131,0.7101,0.7076,0.704,0.7018,0.6989,0.6953,0.6903,0.688,0.6857,0.6846,0.6845,0.6844,0.6844,0.6848,0.6834,0.685,0.685,0.685,0.685,0.685,0,0.7299,0.7274,0.725,0.7211,0.719,0.7168,0.7135,0.7119,0.7094,0.7064,0.7038,0.7005,0.6976,0.6937,0.6905,0.6894,0.6881,0.6887,0.6887,0.6881,0.6859,0.6863,0.6898,0.6898,0.6898,0.6898,0.6898,0.6898,0.731,0.7288,0.7267,0.7233,0.7207,0.718,0.7163,0.7139,0.7114,0.7079,0.7055,0.703,0.6996,0.6962,0.6934,0.6923,0.6913,0.6922,0.6908,0.6887,0.6883,0.6879,0.6882,0.692,0.692,0.6931,0.6932,0.6932]}]]